Weather History for KSJT - August, 2013

Change the Weather History Date:

Wednesday, August 21, 2013

  Actual Average Record
Temperature  
Mean Temperature 82 °F 82 °F  
Max Temperature 95 °F 94 °F 105 °F (1934)
Min Temperature 68 °F 71 °F 57 °F (1940)
Degree Days  
Heating Degree Days 0 0  
Month to date heating degree days 0 0  
Since 1 June heating degree days 0 0  
Since 1 July heating degree days 0 0  
Cooling Degree Days 17 17  
Month to date cooling degree days 443 387  
Year to date cooling degree days 2154 1874  
Since 1 June cooling degree days 1558 1414  
Growing Degree Days 32 (Base 50)    
Moisture  
Dew Point 58 °F    
Average Humidity 52    
Maximum Humidity 78    
Minimum Humidity 26    
Precipitation  
Precipitation 0.00 in 0.09 in 1.01 in (1965)
Month to date precipitation 0.23 1.35  
Year to date precipitation 11.18 13.16  
Sea Level Pressure  
Sea Level Pressure 29.98 in    
Wind  
Wind Speed 7 mph (SE)    
Max Wind Speed 17 mph    
Max Gust Speed 23 mph    
Visibility 10 miles    
Events      
T = Trace of Precipitation, MM = Missing Value Source: NWS Daily Summary

Daily Weather History Graph

Daily Weather History Graph

Search for Another Location

Airport or City:

Trip Planner

Search our weather history database for the weather conditions in past years. The results will help you decide how hot, cold, wet, or windy it might be!

Date:

Astronomy

Aug. 21, 2013 Rise Set
Actual Time 7:11 AM CDT 8:18 PM CDT
Civil Twilight 6:46 AM CDT 8:43 PM CDT
Nautical Twilight 6:16 AM CDT 9:13 PM CDT
Astronomical Twilight 5:45 AM CDT 9:43 PM CDT
Moon 8:36 PM CDT (8/21) 7:47 AM CDT (8/21)
Length of Visible Light 13h 57m
Length of Day
13h 06m
Waxing Gibbous, 99% of the Moon is Illuminated
Aug 21
Waxing Gibbous
Aug 28
Last Quarter
Sep 5
New
Sep 12
First Quarter
Sep 19
Full

Hourly Weather History & Observations

Time (CDT) Temp. Heat Index Dew Point Humidity Pressure Visibility Wind Dir Wind Speed Gust Speed Precip Events Conditions
12:51 AM 73.0 °F - 51.1 °F 46% 29.97 in 10.0 mi East 3.5 mph - N/A   Clear
2:51 AM 72.0 °F - 55.0 °F 55% 29.98 in 10.0 mi SE 4.6 mph - N/A   Clear
3:51 AM 72.0 °F - 57.9 °F 61% 29.98 in 10.0 mi South 5.8 mph - N/A   Clear
4:51 AM 71.1 °F - 61.0 °F 70% 29.99 in 10.0 mi Calm Calm - N/A   Clear
5:51 AM 70.0 °F - 62.1 °F 76% 29.99 in 10.0 mi South 3.5 mph - N/A   Clear
6:51 AM 68.0 °F - 60.1 °F 76% 30.01 in 10.0 mi SW 3.5 mph - N/A   Clear
7:51 AM 68.0 °F - 60.1 °F 76% 30.03 in 10.0 mi Calm Calm - N/A   Clear
8:51 AM 73.9 °F - 64.0 °F 71% 30.05 in 10.0 mi South 4.6 mph - N/A   Clear
9:51 AM 78.1 °F - 66.0 °F 66% 30.05 in 10.0 mi SSW 9.2 mph - N/A   Clear
2:51 PM 93.0 °F 90.8 °F 54.0 °F 27% 29.99 in 10.0 mi SW 6.9 mph - N/A   Clear
3:51 PM 93.0 °F 91.7 °F 57.0 °F 30% 29.96 in 10.0 mi Variable 5.8 mph 16.1 mph N/A   Overcast
4:51 PM 95.0 °F 93.4 °F 55.9 °F 27% 29.94 in 10.0 mi ENE 11.5 mph 17.3 mph N/A   Clear
5:51 PM 93.9 °F 92.0 °F 55.0 °F 27% 29.92 in 10.0 mi NNE 6.9 mph - N/A   Clear
6:51 PM 93.0 °F 91.7 °F 57.0 °F 30% 29.92 in 10.0 mi ENE 9.2 mph - N/A   Clear
7:51 PM 90.0 °F 88.8 °F 57.9 °F 34% 29.93 in 10.0 mi NE 9.2 mph - N/A   Clear
8:51 PM 87.1 °F 86.5 °F 59.0 °F 39% 29.94 in 10.0 mi NE 9.2 mph - N/A   Partly Cloudy
9:51 PM 84.9 °F 85.0 °F 61.0 °F 44% 29.97 in 10.0 mi ENE 6.9 mph - N/A   Overcast
10:51 PM 84.9 °F 85.0 °F 61.0 °F 44% 29.99 in 10.0 mi SE 10.4 mph 20.7 mph N/A   Scattered Clouds
11:51 PM 81.0 °F 82.2 °F 63.0 °F 54% 30.00 in 10.0 mi South 13.8 mph 19.6 mph N/A   Clear